Location: ???? ??
(36.0534°N, 43.5630°E)
Time: 07:16:57
(UTC+00:00)

Cosmos 1842 - Pass Details

Date: 18 September 2019
Orbit: 522 x 538 km, 82.5° (Epoch: 18 October)

Event Time Altitude Azimuth Distance (km) Brightness Sun altitude
Rises 15:58:03 0° 353° (N) 2,697 7.1 -10.6°
Reaches altitude 10° 16:00:13 10° 354° (N) 1,800 6.2 -11.0°
Maximum altitude 16:04:11 86° 83° (E) 542 3.2 -11.8°
Drops below altitude 10° 16:08:06 10° 173° (S) 1,780 5.7 -12.6°
Sets 16:10:14 0° 174° (S) 2,663 6.6 -13.0°
